STARLINK-3843, 52341

Orbit data source: Space-Track

STARLINK-3843, 52341 is a payload satellite owned by SpaceX/Seattle (US) in LEO that was launched on Fri, 29 Apr 2022 UTC via an FALCON 9 launch vehicle from the Air Force Eastern Test Range (AFETR). Payload-class satellites include a variety of spacecraft equipped with specific instruments for various scientific and technological missions. These include communications satellites like Starlink; space stations such as the ISS; scientific satellites like the Hubble; Earth observation satellites from companies like Planet Labs, Umbra, and HawkEye 360; GPS; miniature CubeSats for education and research; and military/defense satellites.

Loading next visibility...
Identifier
52341, 2022-045L
Orbit
LEO
Country
Flag of USUS
Related business
Manufacturer
SpaceX/Seattle
Mission
Operational Commercial Communications
Bus & Motor
STARLINK, Unknown motor
Mass
297 kg wet, ~275 kg dry
Launch date (UTC)
2022-04-29 (4 years ago)
Launch vehicle
FALCON 9
Launch site
Air Force Eastern Test Range (AFETR)
Object type
Payload
Rocket body
Debris
Shape & HBR
Box + 1 Pan, 10.1 m
Radar Cross Section
11.087 m², Large (>1 m²)

Expand to show TLE details & history
Last TLE update: 16 hours ago

TLE from 16 hours ago
0 STARLINK-3843
1 52341U 22045L   25349.96423849  .00000446  00000-0  46124-4 0  9991
2 52341  53.2161 224.9281 0001464  98.2432 261.8726 15.08833564203006
Epoch: 2025-12-15T23:08Z
TLE epoch observation values (Epoch: 2025-12-15T23:08:30.205Z)
Latitude
-0.00004°
Longitude
152.94696°
Altitude
540.804 km
Speed
7.593 km/s
True Right ascension
14h 59m 42s
True Declination
0° 00' 00"
Sunlit
Object was in daylight at epoch
Visualization orbit readout
Latitude
Unknown
Longitude
Unknown
Altitude
Unknown
Speed
Unknown
Apparent Right ascension
Unknown
Apparent Declination
Unknown
Sunlit
N/A
Visualization observer readout
Local Sidereal Time
13:42:17
Azimuth
Unknown
Elevation
Unknown
Doppler factor
Unknown
Orbital elements
Apogee altitude
541.021 km
Perigee altitude
538.995 km
Semi-major axis
6,918.145 km
Eccentricity
0.00015
Inclination
53.2161°
RAAN
224.9281°
Arg. of periapsis
98.2432°
True anomaly
261.85599°
Mean anomaly
261.8726°
Eccentric anomaly
261.8643°
Mean motion
3.77189 °/min
Orbital period
95.44 mins
BSTAR
0.000046124
Loading maneuver chart data...
Computing Atmospheric mass density...
Loading historical data...
Loading historical data...
Loading historical data...
Loading historical data...
Loading historical data...
Loading historical data...
Loading historical data...

Documentation

Showing up to 5 results
|